Weather History for Krakow, Poland

Change the Weather History Date:

Sunday, December 30, 2012

  Actual Average Record
Temperature  
Mean Temperature 30 °F -  
Max Temperature 43 °F 32 °F 43 °F (2012)
Min Temperature 16 °F 20 °F -7 °F (1996)
Degree Days  
Heating Degree Days 36    
Moisture  
Dew Point 23 °F    
Average Humidity 77    
Maximum Humidity 100    
Minimum Humidity 47    
Precipitation  
Precipitation 0.00 in 0.04 in - ()
Sea Level Pressure  
Sea Level Pressure 30.13 in    
Wind  
Wind Speed 3 mph ()    
Max Wind Speed 14 mph    
Max Gust Speed -    
Visibility 3.7 miles    
Events      
Averages and records for this station are not official NWS values.
T = Trace of Precipitation, MM = Missing Value Source: Averaged Metar Reports

Daily Weather History Graph

Daily Weather History Graph

Search for Another Location

Airport:

Trip Planner

Search our weather history database for the weather conditions in past years. The results will help you decide how hot, cold, wet, or windy it might be!

Date:

Astronomy

Dec. 30, 2012 Rise Set
Actual Time 7:39 AM CET 3:47 PM CET
Civil Twilight 7:01 AM CET 4:25 PM CET
Nautical Twilight 6:19 AM CET 5:07 PM CET
Astronomical Twilight 5:40 AM CET 5:46 PM CET
Moon 6:15 PM CET (12/30) 8:25 AM CET (12/30)
Length of Visible Light 9h 24m
Length of Day
8h 07m
Waning Gibbous, 96% of the Moon is Illuminated
Dec 30
Waning Gibbous
Jan 5
Last Quarter
Jan 11
New
Jan 19
First Quarter
Jan 27
Full

Hourly Weather History & Observations

Time (CET) Temp. Windchill Dew Point Humidity Pressure Visibility Wind Dir Wind Speed Gust Speed Precip Events Conditions
12:00 AM 21.2 °F - 19.4 °F 93% 30.18 in 1.2 mi ENE 2.3 mph - N/A   Mist
12:30 AM 19.4 °F - 17.6 °F 93% 30.15 in 1.2 mi ENE 2.3 mph - N/A   Mist
1:00 AM 20 °F - 18 °F 87% 30.23 in 1 mi ENE 4.5 mph - -   Mist
1:00 AM 19.4 °F - 17.6 °F 93% 30.15 in 1.2 mi ENE 2.3 mph - N/A   Mist
1:30 AM 19.4 °F - 19.4 °F 100% 30.15 in 1.2 mi NE 1.2 mph - N/A   Mist
2:00 AM 19.4 °F - 19.4 °F 100% 30.15 in 1.2 mi East 2.3 mph - N/A   Mist
2:30 AM 19.4 °F - 17.6 °F 93% 30.12 in 1.2 mi Calm Calm - N/A   Mist
3:00 AM 19.4 °F - 17.6 °F 93% 30.12 in 1.2 mi East 1.2 mph - N/A   Mist
3:30 AM 17.6 °F - 15.8 °F 93% 30.12 in 1.2 mi ENE 1.2 mph - N/A   Mist
4:00 AM 17 °F - 15 °F 85% 30.21 in 1 mi Calm Calm - -   Mist
4:00 AM 17.6 °F - 15.8 °F 93% 30.12 in 1.2 mi Calm Calm - N/A   Mist
4:30 AM 17.6 °F - 15.8 °F 93% 30.12 in 1.2 mi Calm Calm - N/A   Mist
5:00 AM 17.6 °F - 15.8 °F 93% 30.12 in 1.2 mi Calm Calm - N/A   Mist
5:30 AM 17.6 °F - 15.8 °F 93% 30.12 in 1.2 mi East 1.2 mph - N/A   Mist
6:00 AM 17.6 °F - 15.8 °F 93% 30.12 in 1.2 mi ENE 1.2 mph - N/A   Mist
6:30 AM 17.6 °F - 15.8 °F 93% 30.12 in 1.2 mi Calm Calm - N/A   Mist
7:00 AM 18 °F - 15 °F 83% 30.21 in 2 mi Calm Calm - -   Mist
7:00 AM 17.6 °F - 15.8 °F 93% 30.12 in 1.6 mi Calm Calm - N/A   Mist
7:30 AM 17.6 °F - 15.8 °F 93% 30.12 in 1.2 mi Calm Calm - N/A   Mist
8:00 AM 17.6 °F - 15.8 °F 93% 30.12 in 1.6 mi Calm Calm - N/A   Mist
8:30 AM 19.4 °F - 17.6 °F 93% 30.12 in 2.5 mi Calm Calm - N/A   Mist
9:00 AM 23.0 °F - 19.4 °F 86% 30.12 in 2.2 mi Calm Calm - N/A   Mist
9:30 AM 24.8 °F - 21.2 °F 86% 30.12 in 2.5 mi Calm Calm - N/A   Mist
10:00 AM 27 °F - 23 °F 77% 30.19 in 2 mi West 2.2 mph - -   Mist
10:00 AM 28.4 °F - 23.0 °F 80% 30.12 in 2.5 mi Calm Calm - N/A   Mist
10:30 AM 32.0 °F - 24.8 °F 75% 30.09 in 3.1 mi Calm Calm - N/A   Mist
11:00 AM 35.6 °F - 23.0 °F 60% 30.09 in 3.1 mi Variable 1.2 mph - N/A   Mist
11:30 AM 37.4 °F - 28.4 °F 70% 30.09 in 3.7 mi Variable 1.2 mph - N/A   Unknown
12:00 PM 41.0 °F 36.4 °F 30.2 °F 65% 30.09 in - WSW 6.9 mph - N/A   Clear
12:30 PM 42.8 °F 35.8 °F 30.2 °F 61% 30.09 in - WSW 13.8 mph - N/A   Clear
1:00 PM 43 °F - 30 °F 48% 30.14 in 19 mi WSW 13.4 mph - -   Clear
1:00 PM 42.8 °F 36.2 °F 30.2 °F 61% 30.09 in - WSW 12.7 mph - N/A   Clear
1:30 PM 42.8 °F 37.0 °F 30.2 °F 61% 30.09 in - WSW 10.4 mph - N/A   Clear
2:00 PM 42.8 °F 37.0 °F 30.2 °F 61% 30.09 in - WSW 10.4 mph - N/A   Clear
2:30 PM 42.8 °F 38.6 °F 30.2 °F 61% 30.09 in - SW 6.9 mph - N/A   Clear
3:00 PM 41.0 °F 35.2 °F 28.4 °F 61% 30.09 in - SW 9.2 mph - N/A   Clear
3:30 PM 39.2 °F 33.0 °F 28.4 °F 65% 30.09 in - WSW 9.2 mph - N/A   Clear
4:00 PM 39 °F - 26 °F 47% 30.16 in 19 mi SW 8.9 mph - -   Partly Cloudy
4:00 PM 39.2 °F 33.0 °F 26.6 °F 61% 30.12 in - SW 9.2 mph - N/A   Clear
4:30 PM 35.6 °F 30.7 °F 26.6 °F 70% 30.12 in - WSW 5.8 mph - N/A   Clear
5:00 PM 35.6 °F 30.7 °F 26.6 °F 70% 30.12 in - WSW 5.8 mph - N/A   Clear
5:30 PM 35.6 °F 30.7 °F 28.4 °F 75% 30.12 in - WSW 5.8 mph - N/A   Clear
6:00 PM 37.4 °F 32.8 °F 28.4 °F 70% 30.12 in 6.2 mi WSW 5.8 mph - N/A   Scattered Clouds
6:30 PM 35.6 °F 30.7 °F 28.4 °F 75% 30.12 in - WSW 5.8 mph - N/A   Clear
7:00 PM 36 °F - 28 °F 61% 30.20 in 9 mi WSW 8.9 mph - -   Mostly Cloudy
7:00 PM 35.6 °F 29.9 °F 28.4 °F 75% 30.12 in - WSW 6.9 mph - N/A   Clear
7:30 PM 35.6 °F 31.7 °F 26.6 °F 70% 30.15 in 6.2 mi WSW 4.6 mph - N/A   Partly Cloudy
8:00 PM 35.6 °F 32.8 °F 26.6 °F 70% 30.15 in 6.2 mi SW 3.5 mph - N/A   Partly Cloudy
8:30 PM 35.6 °F - 26.6 °F 70% 30.15 in - SW 2.3 mph - N/A   Clear
9:00 PM 35.6 °F 32.8 °F 26.6 °F 70% 30.15 in - WSW 3.5 mph - N/A   Clear
9:30 PM 33.8 °F 28.6 °F 26.6 °F 75% 30.15 in - West 5.8 mph - N/A   Clear
10:00 PM 35 °F - 27 °F 61% 30.21 in 9 mi West 6.7 mph - -   Scattered Clouds
10:00 PM 35.6 °F 29.2 °F 26.6 °F 70% 30.15 in - West 8.1 mph - N/A   Clear
10:30 PM 33.8 °F 30.8 °F 26.6 °F 75% 30.15 in 6.2 mi WSW 3.5 mph - N/A   Partly Cloudy
11:00 PM 33.8 °F 29.6 °F 26.6 °F 75% 30.18 in 6.2 mi SW 4.6 mph - N/A   Scattered Clouds
11:30 PM 35.6 °F 28.0 °F 28.4 °F 75% 30.18 in 6.2 mi WSW 10.4 mph - N/A   Partly Cloudy